Regional Weather Roundup
Issued by NWS

Home | Current Version | Previous Version | Text Only | Print | Product List | Glossary On
Versions: 1 2 3 4 5 6 7 8 9 10 11 12 13 14 15 16 17 18 19 20 21 22 23 24 25 26 27 28 29 30 31 32 33 34 35 36 37 38 39 40 41 42 43 44 45 46 47 48 49 50
756
ASUS44 KFWD 261515
RWRTX
NORTH TEXAS HOURLY WEATHER ROUNDUP
NATIONAL WEATHER SERVICE FORT WORTH TX
900 AM CST SUN FEB 26 2017

NOTE: "FAIR" INDICATES FEW OR NO CLOUDS BELOW 12,000 FEET WITH NO
SIGNIFICANT WEATHER AND/OR OBSTRUCTIONS TO VISIBILITY.

TXZ118-119-261600-
DALLAS/FORT WORTH METROPLEX

CITY           SKY/WX    TMP DP  RH WIND       PRES   REMARKS
DFW AIRPORT    CLOUDY    51  34  52 S16       29.97R
DALLAS LOVE    PTSUNNY   50  33  52 S20G26    30.00R
FTW MEACHAM    CLOUDY    49  32  52 S14       29.97S
DAL-EXECUTIVE  MOSUNNY   50  35  56 S10G18    29.99R
FTW-ALLIANCE   CLOUDY    49  32  52 S15G21    29.97R
FTW-NAS-JRB    CLOUDY    51  34  52 S14       29.98S
FTW-SPINKS     SUNNY     52  36  54 S15       30.00R
ARLINGTON      MOSUNNY   50  34  54 S15G25    29.99R
GRAND PRAIRIE  SUNNY     50  34  53 SE13G18   30.01R
ADDISON        SUNNY     48  32  53 S14G23    30.00R
MESQUITE       SUNNY     48  34  57 MISG      30.02R
LANCASTER      SUNNY     46  36  67 S9        30.02S
$$

TXZ091>094-102>105-117-120-121-131>134-261600-
NORTH CENTRAL TEXAS

CITY           SKY/WX    TMP DP  RH WIND       PRES   REMARKS
SHRMAN/DENISON SUNNY     47  30  51 SE14G23   30.00R
GAINESVILLE    MOSUNNY   48  34  58 S16G23    29.98S
BOWIE          MOSUNNY   48  32  54 S16       29.93S
BRIDGEPORT     CLOUDY    45  32  61 SE3       29.98R
DECATUR        PTSUNNY   47  31  54 S10       29.96R
DENTON         MOSUNNY   49  35  58 S13       29.98R
MCKINNEY       MOSUNNY   49  34  56 S17       30.00R
BONHAM         CLOUDY    45  30  57 SE12G17   30.02R WCI  39
GREENVILLE       N/A     48  34  57 SE13G18   30.03R
ROCKWALL       MOSUNNY   50  34  54 S10G17    30.02R
TERRELL        MOSUNNY   50  34  54 S16       30.03R
WAXAHACHIE     SUNNY     47  38  68 S12G17    30.02S
CLEBURNE       PTSUNNY   46  34  61 SE14      30.00S
GRANBURY       CLOUDY    51  37  58 SE9       29.99S
$$

TXZ083>090-098>101-113>116-127>130-139>142-154-155-261600-
WESTERN NORTH TEXAS

CITY           SKY/WX    TMP DP  RH WIND       PRES   REMARKS
WICHITA FALLS  CLOUDY    43  30  60 SE12      29.92R WCI  37
WF-KICKAPOO    MOSUNNY   43  31  61 SE7       29.94R WCI  39
VERNON         MOSUNNY   42  28  57 SE8       29.91R WCI  37
ABILENE        MOSUNNY   49  39  68 S24G33    29.89F
ABILENE-DYESS  MOSUNNY   52  41  66 SW24G33   29.86R
GRAHAM         MOSUNNY   46  34  61 SE7       29.89F
BRECKENRIDGE   MOSUNNY   52  36  53 S16G23    29.90F
CISCO          PTSUNNY   48  37  66 S17G28    29.91S
RANGER         MOSUNNY   46  36  66 S13G21    29.93F
MINERAL WELLS  MOSUNNY   44  32  62 SE14      29.94S WCI  37
STEPHENVILLE   CLOUDY    46  35  66 S9G16     29.98F
COMANCHE       CLOUDY    55  45  68 S14       29.95F
BROWNWOOD      CLOUDY    48  34  57 S6        29.98R
COLEMAN        CLOUDY    49  37  63 S10       29.95S
$$

TXZ143>147-156>162-174-175-261600-
CENTRAL TEXAS

CITY           SKY/WX    TMP DP  RH WIND       PRES   REMARKS
WACO           CLOUDY    49  39  68 SE7       30.02R
WACO-MCGREGOR  CLOUDY    49  39  68 S7        30.02R
HILLSBORO      PTSUNNY   51  39  62 SE12      30.01S
CORSICANA      PTSUNNY   49  37  63 SE10      30.05R
MEXIA          CLOUDY    50  37  60 SE8       30.03R
HEARNE         CLOUDY    49  40  69 CALM      30.05R
CAMERON        CLOUDY    47  37  69 CALM      30.03S
TEMPLE         PTSUNNY   48  38  68 S5        30.02R
KILLEEN        CLOUDY    48  39  69 SE7       29.98S
KILLEEN-SKYLRK CLOUDY    50  37  61 SE5       30.01R
FORT HOOD      CLOUDY    49  37  63 SE6       29.97R
GATESVILLE     MOSUNNY   45  37  76 CALM      30.02S
HAMILTON       CLOUDY    49  40  69 S7        29.98S
LAMPASAS       CLOUDY    50  43  75 CALM      29.98R
$$

TXZ095>097-106>112-122>126-135>138-148>153-164>167-261600-
EAST TEXAS

CITY           SKY/WX    TMP DP  RH WIND       PRES   REMARKS
PARIS          CLOUDY    43  30  61 SE13      30.06R WCI  36
SULPHUR SPRNGS PTSUNNY   48  33  55 SE10      30.06R
MOUNT PLEASANT SUNNY     46  33  58 SE13      30.08R
GILMER         SUNNY     47  33  60 SE10      30.06S
MINEOLA        SUNNY     48  34  57 SE10G16   30.05R
TYLER          SUNNY     51  33  50 S18G24    30.05R
LONGVIEW       MOSUNNY   48  35  60 SE14      30.08R
MARSHALL       MOSUNNY   46  30  52 SE6       30.11S
PALESTINE      PTSUNNY   52  35  51 SE9       30.07R
JACKSONVILLE   CLOUDY    49  36  59 S12       30.08R
HENDERSON      CLOUDY    49  33  54 SE13      30.08S
CENTER         SUNNY     52  37  54 SE8G16    30.11R
NACOGDOCHES    MOSUNNY   48  34  57 SE13      30.06R
LUFKIN         SUNNY     49  34  56 SE14      30.07S
$$

SUPPLEMENTAL OBSERVATIONS (CENTRAL)

CITY           SKY/WX    TMP DP  RH WIND       PRES   REMARKS
DENISON DAM      N/A     46  32  57 E6          N/A
CADDO GRASSLND   N/A     46  32  57 S8          N/A
PAT MAYSE LAKE   N/A     45  28  53 E8          N/A
GREENVILLE       N/A     50  32  50 S10         N/A
CEDAR HILL       N/A     54  34  47 S13G26      N/A
ATHENS           N/A     52  32  46 SE17G23     N/A
LAKE LIMESTONE   N/A     52  37  58 SE8         N/A
MCGREGOR         N/A     52  41  66 S8          N/A
TEMPLE           N/A     48  37  66 SE5         N/A
$$

SUPPLEMENTAL OBSERVATIONS (WEST)

CITY           SKY/WX    TMP DP  RH WIND       PRES   REMARKS
MILLERS CREEK    N/A     45  36  70 SW7         N/A
POSSUM KINGDOM   N/A     48  32  53 S9          N/A
LBJ GRASSLAND    N/A     48  32  53 SE13        N/A
GRANBURY         N/A     50  36  57 S10         N/A
COMANCHE         N/A     57  45  62 S16G23      N/A
HAMBY            N/A     54  43  66 SW26G35     N/A
IVIE RESERVOIR   N/A     52  37  58 SE8         N/A
COLORADO BEND    N/A     52  41  66 SW8         N/A
$$

SUPPLEMENTAL OBSERVATIONS (EAST)

CITY           SKY/WX    TMP DP  RH WIND       PRES   REMARKS
CLARKSVILLE      N/A     46  28  49 SE13        N/A
TEXARKANA        N/A     46  30  53 SE8G16      N/A
LINDEN           N/A     46  32  57 S5          N/A
CADDO LAKE       N/A    N/A N/A N/A SE7G15      N/A
GILMER           N/A     50  32  50 SE9         N/A
HENDERSON        N/A     50  32  50 SE9         N/A
LUFKIN           N/A     52  32  46 MISG        N/A
N SABINE NF      N/A     48  32  53 MISG        N/A
S SABINE NF      N/A     54  32  43 SE5G13      N/A
$$

SUPPLEMENTAL OBSERVATIONS ARE A COLLECTION OF AUTOMATED INSTRUMENTS
THAT ARE MAINTAINED BY A VARIETY OF FEDERAL AND STATE AGENCIES.
CERTAIN ELEMENTS...SUCH AS HUMIDITY VALUES AND SUSTAINED WIND
SPEEDS...MAY BE APPROXIMATED.





USA.gov is the U.S. government's official web portal to all federal, state and local government web resources and services.